Content
SEND FEEDBACK

Daily
Averages
Monthly
Summary
United States of America

FORT DICK, CALIFORNIA


Home > North America > United States > California
Elevation: 7 feet     Latitude: 41 44N     Longitude: 124 12W

WEATHER
 
SELECT A DAY
Number of Records: 269,456;   Date Range: 1/1/95 - 7/28/14
 
SHARE

PRINT THIS DATA

[ ← Previous Day ]
WEATHER ALMANAC - FEBRUARY 13, 2013
[ Next Day → ]
[ °C ]   °F
Weather ElementAverageHighLow
Temperature47 °F53.1 °F (1:56 pm)41 °F (7:56 am)
Dewpoint44.1 °F46 °F (12:56 pm)39.9 °F (6:56 am)
Humidity89.8 %100 % (8:12 am)77 % (9:56 am)
Barometer30.42 in30.45 in (8:28 am)30.38 in (3:56 pm)
Wind Speed9.6 mph20.7 mph (4:56 pm)
Wind Gust29.9 mph (1:56 pm)
Weather ElementAverage
Visibility5.5 mi
Wind DirectionWNW (298.4 °)

Weather ElementTotal
Precipitation---
Heating Degree Days18 (Base 65)
Averaged from 37 records on February 13, 2013
WEATHER CONDITIONS BREAKOUT
WIND DIRECTION BREAKOUT
WEATHER BY HOUR - FEBRUARY 13, 2013
[ °C ]   °F
Local TimeTemperatureDewpointHumidityBarometerVisibilityWind DirectionWind SpeedGust SpeedPrecipitationEventsConditions
1:56 AM46.9 °F45.0 °F93 %30.44 in6.0 miNNW (340°)10.4 mphClear
2:04 AM46.4 °F44.6 °F93 %30.44 in5.0 miNorth (350°)10.4 mphPartly Cloudy
2:56 AM46.9 °F45.0 °F93 %30.44 in6.0 miNorth (350°)9.2 mphClear
3:33 AM46.4 °F44.6 °F93 %30.43 in4.0 miNNW (340°)9.2 mphPartly Cloudy
3:56 AM45.0 °F44.1 °F97 %30.43 in5.0 miNNW (340°)4.6 mphPartly Cloudy
4:56 AM44.1 °F41.0 °F89 %30.43 in5.0 miNNW (330°)5.8 mphClear
5:56 AM45.0 °F42.1 °F90 %30.43 in8.0 miNorth (350°)5.8 mphClear
6:34 AM42.8 °F41.0 °F93 %30.42 in4.0 miNorth (350°)3.5 mphPartly Cloudy
6:56 AM42.1 °F39.9 °F92 %30.43 in4.0 miNNW (340°)3.5 mphPartly Cloudy
7:56 AM41.0 °F39.9 °F96 %30.44 in2.5 miCalmScattered Clouds
8:12 AM42.8 °F42.8 °F100 %30.44 in3.0 miCalmScattered Clouds
8:15 AM42.8 °F42.8 °F100 %30.44 in2.5 miCalmMostly Cloudy
8:19 AM42.8 °F42.8 °F100 %30.44 in1.2 miNW (320°)3.5 mphMostly Cloudy
8:28 AM44.6 °F42.8 °F93 %30.45 in0.5 miNNW (330°)4.6 mphFogFog
8:38 AM46.4 °F44.6 °F93 %30.45 in1.5 miNW (320°)4.6 mphScattered Clouds
8:49 AM46.4 °F44.6 °F93 %30.45 in3.0 miNW (320°)4.6 mphPartly Cloudy
8:56 AM46.9 °F44.1 °F90 %30.45 in4.0 miNW (320°)3.5 mphClear
9:56 AM51.1 °F44.1 °F77 %30.45 in8.0 miCalmClear
10:42 AM50.0 °F44.6 °F82 %30.45 in4.0 miWNW (300°)6.9 mphHaze
10:56 AM50.0 °F43.0 °F77 %30.45 in9.0 miWNW (300°)9.2 mphPartly Cloudy
11:56 AM51.1 °F44.1 °F77 %30.45 in10.0 miNW (320°)11.5 mphClear
12:56 PM52.0 °F46.0 °F80 %30.43 in9.0 miNorth (350°)15.0 mph21.9 mphClear
1:56 PM53.1 °F46.0 °F77 %30.40 in9.0 miNNW (330°)19.6 mph29.9 mphClear
2:56 PM52.0 °F46.0 °F80 %30.39 in9.0 miNNW (330°)16.1 mph26.5 mphClear
3:56 PM51.1 °F46.0 °F83 %30.38 in9.0 miNNW (330°)19.6 mph29.9 mphClear
4:56 PM50.0 °F45.0 °F83 %30.38 in7.0 miNNW (330°)20.7 mph29.9 mphClear
5:56 PM48.0 °F45.0 °F89 %30.38 in6.0 miNNW (340°)15.0 mph21.9 mphClear
6:22 PM48.2 °F44.6 °F87 %30.38 in7.0 miNNW (340°)17.3 mph26.5 mphPartly Cloudy
6:56 PM48.0 °F45.0 °F89 %30.39 in7.0 miNNW (340°)17.3 mph26.5 mphClear
7:05 PM46.4 °F44.6 °F93 %30.39 in6.0 miNNW (340°)16.1 mph27.6 mphScattered Clouds
7:16 PM46.4 °F44.6 °F93 %30.39 in6.0 miNNW (340°)16.1 mph23.0 mphMostly Cloudy
7:39 PM46.4 °F44.6 °F93 %30.39 in5.0 miNNW (340°)12.7 mphScattered Clouds
7:56 PM46.9 °F45.0 °F93 %30.40 in6.0 miNNW (340°)11.5 mph20.7 mphClear
8:56 PM46.9 °F45.0 °F93 %30.41 in6.0 miNNW (330°)15.0 mph21.9 mphClear
9:56 PM46.9 °F45.0 °F93 %30.42 in6.0 miNNW (340°)12.7 mph21.9 mphClear
10:56 PM46.9 °F45.0 °F93 %30.43 in5.0 miNorth (350°)10.4 mphClear
11:56 PM46.9 °F45.0 °F93 %30.42 in6.0 miNorth (350°)10.4 mphClear
Hourly data recorded from KCEC, located miles away from Fort Dick, California







STORIES FROM OUR PARTNERS